Weather in Whyalla

Australia     33°02′55″S   137°32′44″E
temp.,
°C
wind,
m/s
gust,
m/s
humid.,
%
clouds,
%
prec.,
mm/h
press.,
hPa
HPBL,
m
3 march, wed
wed301:30+22se5849100 0.0 1016259
04:30+22sse3444100 0.0 1015106
07:30+20se234538 0.0 101745
10:30+24ese332919 0.0 1018610
13:30+26sse55240 0.0 1017821
16:30+27s87280 0.0 1015575
19:30+24s811410 0.0 1016587
22:30+20sse912540 0.0 1018447
4 march, thu
thu401:30+20sse68550 0.0 1018218
04:30+18sse57540 0.0 1018162
07:30+17se33550 0.0 101960
10:30+22se32370 0.0 1019576
13:30+25sse54270 0.0 1017798
16:30+26s65233 0.0 1015556
19:30+22s9114543 0.0 1015358
22:30+21s8115731 0.0 1017369
5 march, fri
fri501:30+19sse68690 0.0 1017309
04:30+18s68700 0.0 1016236
07:30+17s57660 0.0 1016169
10:30+22sse55410 0.0 1017424
13:30+25s64340 0.0 1015606
16:30+26s66280 0.0 1012668
19:30+22s912540 0.0 1013383
22:30+20sse8106837 0.0 1015481
6 march, sat
sat601:30+19s686395 0.0 1014292
04:30+18s466683 0.0 1013124
07:30+18s456294 0.0 1014104
10:30+22e334497 0.0 1013474
13:30+26se3231100 0.0 1012867
16:30+27sse653299 0.0 1009491
19:30+23sse6750100 0.0 1009235
22:30+21ssw6862100 0.0 1011221
7 march, sun
sun701:30+20s5760100 0.0 1011155
04:30+19s346793 0.0 100986
07:30+18ssw346788 0.0 101052
10:30+23s114493 0.0 1010331
13:30+26ssw443573 0.0 1009661
16:30+26sse654357 0.0 1007417
19:30+22s685996 0.0 1009330
22:30+20s7106598 0.0 1011327